GW2092 Weather Reports


time (UTC)temp
F
wind
direction
speed
knots
gust
knots
rain 1hr
in
rain 24hr
in
rain mn
in
humidity
%
barometer
mb
20260901080100 76 0 0.0 0.0 0.00 0.00 0.00 67 1017.7
20260901074551 76 0 0.0 0.0 0.00 0.00 0.00 66 1017.5
20260901073048 77 0 0.0 0.0 0.00 0.00 0.00 65 1017.6
20260901071554 77 0 0.0 0.0 0.00 0.00 0.00 65 1017.6
20260901070056 77 0 0.0 1.7 0.00 0.00 0.00 65 1017.6
20260901064548 77 0 0.0 0.0 0.00 0.00 0.00 64 1017.7
20260901063117 77 0 0.0 0.0 0.00 0.00 0.00 64 1017.6
20260901061554 77 0 0.0 0.0 0.00 0.00 0.00 64 1017.5
20260901060049 77 0 0.0 0.9 0.00 0.00 0.00 63 1017.6
20260901054544 77 0 0.0 0.0 0.00 0.00 0.00 63 1017.3
20260901053115 78 0 0.0 0.0 0.00 0.00 0.00 62 1017.4
20260901051603 78 0 0.0 0.0 0.00 0.00 0.00 62 1017.4
20260901050056 79 0 0.0 0.0 0.00 0.00 0.00 61 1017.3
20260901044557 78 0 0.0 0.9 0.00 0.00 0.00 61 1017.1
20260901043100 78 0 0.0 0.0 0.00 0.00 0.00 61 1017.3
20260901041608 79 0 0.0 0.0 0.00 0.00 0.00 60 1017.4
20260901040047 79 0 0.0 0.9 0.00 0.00 0.00 59 1017.4
20260901034546 80 0 0.0 0.9 0.00 0.00 0.00 59 1017.4
20260901033059 80 0 0.0 0.9 0.00 0.00 0.00 57 1017.3
20260901031557 80 0 0.0 0.9 0.00 0.00 0.00 58 1017.4
20260901030047 80 0 0.0 0.0 0.00 0.00 0.00 58 1017.2
20260901024556 80 0 0.0 0.9 0.00 0.00 0.00 59 1016.9
20260901023050 80 0 0.0 0.0 0.00 0.00 0.00 58 1016.6
20260901021549 80 0 0.0 0.0 0.00 0.00 0.00 56 1016.3
20260901020100 81 0 0.0 0.0 0.00 0.00 0.00 54 1015.9
20260901014600 82 0 0.0 0.0 0.00 0.00 0.00 52 1015.9
20260901013054 84 0 0.0 0.0 0.00 0.00 0.00 50 1015.7
20260901011545 86 0 0.0 0.0 0.00 0.00 0.00 48 1015.5
20260901010054 88 0 0.0 0.0 0.00 0.00 0.00 45 1015.5
20260901004600 90 0 0.0 0.0 0.00 0.00 0.00 43 1015.5
20260901003049 92 0 0.0 0.9 0.00 0.00 0.00 41 1015.4
20260901001554 94 0 0.0 0.9 0.00 0.00 0.00 38 1015.3
20260901000106 95 0 0.0 1.7 0.00 0.00 0.00 37 1015.5
20260831234612 96 106 0.0 1.7 0.00 0.00 0.00 36 1015.5
20260831233049 97 0 0.0 2.6 0.00 0.00 0.00 35 1015.6
20260831231555 97 0 0.0 3.5 0.00 0.00 0.00 34 1015.6
20260831230051 99 0 0.0 3.5 0.00 0.00 0.00 32 1015.6
20260831224545 101 0 0.0 2.6 0.00 0.00 0.00 31 1015.6
20260831223054 101 224 0.0 2.6 0.00 0.00 0.00 31 1015.6
20260831221551 103 0 0.0 2.6 0.00 0.00 0.00 30 1015.7
20260831220049 102 126 0.9 7.0 0.00 0.00 0.00 30 1015.7
20260831214604 102 0 0.0 2.6 0.00 0.00 0.00 30 1015.8
20260831213053 102 72 0.9 4.3 0.00 0.00 0.00 30 1015.8
20260831211548 103 94 0.9 4.3 0.00 0.00 0.00 30 1015.9
20260831210046 102 0 0.0 6.1 0.00 0.00 0.00 31 1016.1
20260831204605 102 192 0.0 1.7 0.00 0.00 0.00 31 1016.3
20260831203049 103 56 0.9 7.0 0.00 0.00 0.00 30 1016.5
20260831201557 104 115 0.9 4.3 0.00 0.00 0.00 30 1016.6
20260831200056 103 271 0.0 5.2 0.00 0.00 0.00 32 1016.8
20260831194555 103 0 0.9 5.2 0.00 0.00 0.00 31 1016.8
20260831193047 102 217 0.0 4.3 0.00 0.00 0.00 32 1017.0
20260831191544 104 200 0.9 3.5 0.00 0.00 0.00 31 1017.2
20260831190054 102 0 0.9 5.2 0.00 0.00 0.00 32 1017.3
20260831184549 102 200 0.9 4.3 0.00 0.00 0.00 33 1017.5
20260831183055 103 118 0.0 3.5 0.00 0.00 0.00 33 1017.6
20260831181549 102 161 0.9 4.3 0.00 0.00 0.00 33 1017.7
20260831180055 100 70 0.0 2.6 0.00 0.00 0.00 36 1017.9
20260831174548 101 134 0.9 6.1 0.00 0.00 0.00 35 1018.2
20260831173048 101 158 0.0 4.3 0.00 0.00 0.00 36 1018.2
20260831171544 100 257 0.0 4.3 0.00 0.00 0.00 36 1018.4
20260831170054 99 262 0.0 5.2 0.00 0.00 0.00 39 1018.5
20260831164547 99 0 0.0 4.3 0.00 0.00 0.00 40 1018.8
20260831163049 98 0 0.0 4.3 0.00 0.00 0.00 42 1018.8
20260831161603 98 177 0.9 4.3 0.00 0.00 0.00 41 1018.8
20260831160055 97 199 0.0 4.3 0.00 0.00 0.00 43 1018.8
20260831154618 96 124 0.0 5.2 0.00 0.00 0.00 45 1018.7
20260831153055 95 0 0.0 1.7 0.00 0.00 0.00 46 1018.6
20260831151555 93 245 0.9 5.2 0.00 0.00 0.00 49 1018.7
20260831150051 91 115 0.9 4.3 0.00 0.00 0.00 52 1018.6
20260831144552 89 200 0.9 4.3 0.00 0.00 0.00 55 1018.7
20260831143103 87 180 0.0 5.2 0.00 0.00 0.00 58 1018.8
20260831141604 85 0 0.0 4.3 0.00 0.00 0.00 59 1018.9
20260831140055 83 234 0.0 3.5 0.00 0.00 0.00 62 1019.0
20260831134550 82 203 0.9 2.6 0.00 0.00 0.00 63 1018.9
20260831133046 80 184 0.0 0.9 0.00 0.00 0.00 65 1018.7
20260831131545 78 0 0.0 0.9 0.00 0.00 0.00 67 1018.5
20260831130057 77 0 0.0 0.9 0.00 0.00 0.00 68 1018.4
20260831124545 76 0 0.0 0.0 0.00 0.00 0.00 69 1018.4
20260831123055 75 0 0.0 0.9 0.00 0.00 0.00 70 1018.0
20260831121554 74 0 0.0 0.0 0.00 0.00 0.00 71 1017.8
20260831120046 74 0 0.0 0.9 0.00 0.00 0.00 71 1017.7
20260831114557 74 0 0.0 0.9 0.00 0.00 0.00 70 1017.3
20260831113053 74 0 0.0 0.9 0.00 0.00 0.00 70 1017.2
20260831111550 74 215 0.0 0.9 0.00 0.00 0.00 69 1017.2
20260831110057 75 210 0.0 0.9 0.00 0.00 0.00 68 1017.1
20260831104550 75 0 0.0 0.9 0.00 0.00 0.00 67 1017.0
20260831103046 76 0 0.0 1.7 0.00 0.00 0.00 66 1016.9
20260831101556 76 0 0.0 1.7 0.00 0.00 0.00 65 1016.9
20260831100050 77 0 0.0 3.5 0.00 0.00 0.00 64 1016.8
20260831094545 76 225 0.0 3.5 0.00 0.00 0.00 64 1016.8
20260831093046 76 0 0.0 2.6 0.00 0.00 0.00 63 1016.9
20260831091548 77 186 0.0 4.3 0.00 0.00 0.00 62 1016.7
20260831090045 76 135 0.0 1.7 0.00 0.00 0.00 62 1016.5
20260831084556 76 0 0.0 1.7 0.00 0.00 0.00 62 1016.6
20260831083056 76 0 0.0 0.9 0.00 0.00 0.00 62 1016.6
20260831081545 76 207 0.0 0.0 0.00 0.00 0.00 62 1016.4